Weather History for Crestview, FL

Change the Weather History Date:

Monday, November 14, 2011

  Actual Average Record
Temperature  
Mean Temperature 66 °F -  
Max Temperature 77 °F - - ()
Min Temperature 55 °F - - ()
Cooling Degree Days 1    
Growing Degree Days 16 (Base 50)    
Moisture  
Dew Point 60 °F    
Average Humidity 93    
Maximum Humidity 100    
Minimum Humidity 67    
Precipitation  
Precipitation 0.00 in - - ()
Sea Level Pressure  
Sea Level Pressure 30.08 in    
Wind  
Wind Speed 3 mph (SE)    
Max Wind Speed 17 mph    
Max Gust Speed 22 mph    
Visibility 4 miles    
Events Fog    
T = Trace of Precipitation, MM = Missing Value Source: NWS Daily Summary

Daily Weather History Graph

Daily Weather History Graph

Search for Another Location

Airport:

Trip Planner

Search our weather history database for the weather conditions in past years. The results will help you decide how hot, cold, wet, or windy it might be!

Date:

Astronomy

Nov. 14, 2011 Rise Set
Actual Time 6:11 AM CST 4:49 PM CST
Civil Twilight 5:45 AM CST 5:14 PM CST
Nautical Twilight 5:16 AM CST 5:43 PM CST
Astronomical Twilight 4:48 AM CST 6:12 PM CST
Moon 8:00 PM CST (11/14) 9:23 AM CST (11/14)
Length of Visible Light 11h 29m
Length of Day
10h 38m
Waning Gibbous, 86% of the Moon is Illuminated
Nov 14
Waning Gibbous
Nov 18
Last Quarter
Nov 25
New
Dec 2
First Quarter
Dec 10
Full

Hourly Weather History & Observations

Time (CST) Temp. Dew Point Humidity Pressure Visibility Wind Dir Wind Speed Gust Speed Precip Events Conditions
12:55 AM 63.1 °F 61.9 °F 96% 30.10 in 10.0 mi SE 8.1 mph - N/A   Clear
1:55 AM 62.1 °F 60.3 °F 94% 30.10 in 10.0 mi SSE 3.5 mph - N/A   Clear
2:43 AM 60.8 °F 59.0 °F 94% 30.09 in 2.0 mi Calm Calm - N/A   Clear
2:44 AM 60.8 °F 59.0 °F 94% 30.09 in 1.5 mi Calm Calm - N/A   Clear
2:45 AM 59.0 °F 59.0 °F 100% 30.09 in 1.0 mi Calm Calm - N/A   Clear
2:46 AM 59.0 °F 59.0 °F 100% 30.09 in 0.8 mi Calm Calm - N/A   Clear
2:49 AM 59.0 °F 59.0 °F 100% 30.09 in 0.5 mi Calm Calm - N/A Fog Fog
2:55 AM 59.0 °F 57.9 °F 96% 30.09 in 0.5 mi Calm Calm - N/A Fog Fog
3:07 AM 59.0 °F 59.0 °F 100% 30.09 in 0.8 mi Calm Calm - N/A   Clear
3:08 AM 59.0 °F 59.0 °F 100% 30.09 in 0.5 mi Calm Calm - N/A Fog Fog
3:21 AM 57.2 °F 57.2 °F 100% 30.09 in 0.8 mi Calm Calm - N/A   Clear
3:25 AM 57.2 °F 57.2 °F 100% 30.09 in 1.0 mi Calm Calm - N/A   Clear
3:30 AM 57.2 °F 57.2 °F 100% 30.09 in 0.8 mi Calm Calm - N/A   Clear
3:32 AM 57.2 °F 55.4 °F 94% 30.09 in 0.5 mi Calm Calm - N/A Fog Fog
3:55 AM 56.7 °F 56.1 °F 98% 30.09 in 0.5 mi Calm Calm - N/A Fog Fog
4:03 AM 55.4 °F 55.4 °F 100% 30.09 in 0.8 mi Calm Calm - N/A   Clear
4:07 AM 55.4 °F 55.4 °F 100% 30.09 in 1.0 mi Calm Calm - N/A   Clear
4:09 AM 55.4 °F 55.4 °F 100% 30.09 in 1.2 mi ENE 3.5 mph - N/A   Clear
4:12 AM 55.4 °F 55.4 °F 100% 30.09 in 1.5 mi Calm Calm - N/A   Clear
4:23 AM 57.2 °F 57.2 °F 100% 30.08 in 1.2 mi East 3.5 mph - N/A   Clear
4:25 AM 57.2 °F 57.2 °F 100% 30.08 in 1.5 mi Calm Calm - N/A   Clear
4:41 AM 59.0 °F 59.0 °F 100% 30.09 in 1.2 mi Calm Calm - N/A   Clear
4:43 AM 59.0 °F 59.0 °F 100% 30.09 in 1.0 mi Calm Calm - N/A   Clear
4:45 AM 59.0 °F 57.2 °F 94% 30.09 in 0.8 mi Calm Calm - N/A   Clear
4:50 AM 57.2 °F 57.2 °F 100% 30.09 in 0.5 mi East 3.5 mph - N/A Fog Fog
4:52 AM 57.2 °F 57.2 °F 100% 30.09 in 0.8 mi ESE 3.5 mph - N/A   Clear
4:55 AM 57.4 °F 57.2 °F 99% 30.09 in 0.8 mi ESE 3.5 mph - N/A   Clear
4:58 AM 57.2 °F 57.2 °F 100% 30.09 in 1.0 mi Calm Calm - N/A   Clear
5:02 AM 57.2 °F 57.2 °F 100% 30.09 in 1.2 mi Calm Calm - N/A   Clear
5:05 AM 59.0 °F 59.0 °F 100% 30.09 in 1.5 mi Calm Calm - N/A   Partly Cloudy
5:11 AM 59.0 °F 59.0 °F 100% 30.10 in 1.2 mi Calm Calm - N/A   Scattered Clouds
5:13 AM 59.0 °F 59.0 °F 100% 30.10 in 1.0 mi Calm Calm - N/A   Mist
5:14 AM 59.0 °F 59.0 °F 100% 30.10 in 0.8 mi Calm Calm - N/A   Mist
5:19 AM 59.0 °F 59.0 °F 100% 30.10 in 0.5 mi Calm Calm - N/A Fog Fog
5:33 AM 59.0 °F 59.0 °F 100% 30.11 in 0.8 mi Calm Calm - N/A   Mist
5:47 AM 59.0 °F 59.0 °F 100% 30.11 in 1.0 mi Calm Calm - N/A   Overcast
5:49 AM 59.0 °F 59.0 °F 100% 30.11 in 1.2 mi Calm Calm - N/A   Overcast
5:51 AM 59.0 °F 59.0 °F 100% 30.11 in 1.5 mi Calm Calm - N/A   Overcast
5:54 AM 60.8 °F 59.0 °F 94% 30.11 in 2.5 mi Calm Calm - N/A   Overcast
5:55 AM 59.9 °F 59.5 °F 99% 30.11 in 2.0 mi Calm Calm - N/A   Overcast
6:55 AM 62.1 °F 61.9 °F 99% 30.12 in 10.0 mi ESE 5.8 mph - N/A   Overcast
7:55 AM 64.2 °F 64.0 °F 99% 30.12 in 10.0 mi SE 8.1 mph - N/A   Mostly Cloudy
8:55 AM 69.1 °F 63.3 °F 82% 30.13 in 10.0 mi SE 10.4 mph - N/A   Scattered Clouds
9:55 AM 74.7 °F 64.8 °F 71% 30.12 in 10.0 mi SSE 15.0 mph 21.9 mph N/A   Clear
10:55 AM 77.0 °F 65.5 °F 67% 30.12 in 10.0 mi South 17.3 mph 20.7 mph N/A   Partly Cloudy
11:55 AM 77.0 °F 65.7 °F 68% 30.08 in 10.0 mi South 15.0 mph - N/A   Scattered Clouds
12:55 PM 77.2 °F 65.7 °F 67% 30.05 in 10.0 mi SSE 17.3 mph - N/A   Scattered Clouds
1:55 PM 76.3 °F 65.7 °F 70% 30.04 in 10.0 mi South 17.3 mph - N/A   Partly Cloudy
2:11 PM 75.2 °F 66.2 °F 73% 30.04 in 10.0 mi SSE 13.8 mph 21.9 mph N/A   Mostly Cloudy
2:55 PM 74.1 °F 65.5 °F 74% 30.03 in 10.0 mi SSE 15.0 mph - N/A   Overcast
3:48 PM 73.4 °F 64.4 °F 73% 30.02 in 10.0 mi SSE 13.8 mph - N/A   Mostly Cloudy
3:55 PM 73.0 °F 64.8 °F 75% 30.02 in 10.0 mi SSE 13.8 mph - N/A   Mostly Cloudy
4:55 PM 71.4 °F 64.6 °F 79% 30.03 in 10.0 mi SSE 8.1 mph - N/A   Partly Cloudy
5:55 PM 69.4 °F 65.1 °F 86% 30.03 in 10.0 mi SE 5.8 mph - N/A   Clear
6:55 PM 68.0 °F 65.5 °F 92% 30.04 in 10.0 mi SE 6.9 mph - N/A   Clear
7:55 PM 66.7 °F 65.3 °F 95% 30.04 in 10.0 mi SE 3.5 mph - N/A   Clear
8:55 PM 67.5 °F 66.2 °F 96% 30.05 in 10.0 mi SE 6.9 mph - N/A   Clear
9:55 PM 67.6 °F 65.5 °F 93% 30.06 in 10.0 mi SE 6.9 mph - N/A   Clear
10:55 PM 66.9 °F 65.3 °F 95% 30.04 in 10.0 mi SE 6.9 mph - N/A   Clear
11:55 PM 66.2 °F 65.3 °F 97% 30.03 in 10.0 mi SE 6.9 mph - N/A   Clear